,

(GMT )
Port Weller

Weather History for CWWZ - April, 2013

Change the Weather History Date:

Thursday, April 18, 2013

  Actual Average Record
Temperature  
Mean Temperature 60 °F -  
Max Temperature 80 °F - - ()
Min Temperature 41 °F - - ()
Degree Days  
Heating Degree Days 4    
Growing Degree Days 10 (Base 50)    
Moisture  
Dew Point 45 °F    
Average Humidity 69    
Maximum Humidity 89    
Minimum Humidity 35    
Precipitation  
Precipitation 0.02 in - - ()
Sea Level Pressure  
Sea Level Pressure 29.84 in    
Wind  
Wind Speed 14 mph ()    
Max Wind Speed 26 mph    
Max Gust Speed 36 mph    
T = Trace of Precipitation, MM = Missing Value Source: Averaged Metar Reports

Daily Weather History Graph

Daily Weather History Graph

Search for Another Location

Airport or City:

Trip Planner

Search our weather history database for the weather conditions in past years. The results will help you decide how hot, cold, wet, or windy it might be!

Date:

Astronomy

Apr. 18, 2013 Rise Set
Actual Time 6:29 AM EDT 8:03 PM EDT
Civil Twilight 5:59 AM EDT 8:33 PM EDT
Nautical Twilight 5:23 AM EDT 9:09 PM EDT
Astronomical Twilight 4:44 AM EDT 9:48 PM EDT
Moon 12:37 PM EDT (4/18) 2:19 AM EDT (4/18)
Length of Visible Light 14h 34m
Length of Day
13h 34m
First Quarter, 51% of the Moon is Illuminated
Apr 18
First Quarter
Apr 25
Full
May 2
Last Quarter
May 9
New
May 18
First Quarter

Hourly Weather History & Observations

Time (EDT) Temp. Windchill Dew Point Humidity Pressure Visibility Wind Dir Wind Speed Gust Speed Precip Events Conditions
1:00 AM 42.4 °F 33.3 °F 37.4 °F 82% 30.15 in - East 21.9 mph - N/A   Unknown
2:00 AM 42 °F - 38 °F 80% 30.14 in - NE 17.3 mph - -  
2:00 AM 42.1 °F 33.9 °F 37.9 °F 85% 30.14 in - NE 17.3 mph - N/A   Unknown
3:00 AM 42.4 °F 33.8 °F 36.9 °F 81% 30.09 in - ENE 19.6 mph - 0.02 in   Unknown
4:00 AM 42.3 °F 33.1 °F 37.8 °F 84% 30.06 in - ENE 21.9 mph - N/A   Unknown
5:00 AM 42 °F - 38 °F 82% 30.02 in - East 20.7 mph - -  
5:00 AM 42.4 °F 33.5 °F 38.3 °F 85% 30.02 in - East 20.7 mph - N/A   Unknown
6:00 AM 42.8 °F 35.1 °F 39.7 °F 89% 29.99 in - East 16.1 mph - N/A   Unknown
7:00 AM 45.5 °F 39.6 °F 36.9 °F 72% 29.97 in - ESE 12.7 mph - N/A   Unknown
8:00 AM 45 °F - 38 °F 70% 29.96 in - East 11.5 mph - -  
8:00 AM 45.1 °F 39.5 °F 38.3 °F 77% 29.96 in - East 11.5 mph - N/A   Unknown
9:00 AM 44.6 °F 40.7 °F 39.9 °F 84% 29.92 in - East 6.9 mph - N/A   Unknown
10:00 AM 44.8 °F 40.4 °F 40.3 °F 84% 29.87 in - East 8.1 mph - N/A   Unknown
11:00 AM 46 °F - 40 °F 74% 29.86 in - WNW 3.5 mph - -  
11:00 AM 46.4 °F 45.2 °F 40.5 °F 80% 29.86 in - NW 3.5 mph - N/A   Unknown
1:00 PM 45.1 °F 42.0 °F 40.3 °F 83% 29.78 in - North 5.8 mph - N/A   Unknown
2:00 PM 47 °F - 42 °F 76% 29.76 in - North 3.5 mph - -  
2:00 PM 47.5 °F - 41.7 °F 80% 29.76 in - North 3.5 mph - N/A   Unknown
3:00 PM 76.5 °F - 53.2 °F 44% 29.71 in - SSW 15.0 mph 24.2 mph N/A   Unknown
4:00 PM 79.2 °F - 54.3 °F 42% 29.68 in - South 17.3 mph 27.6 mph N/A   Unknown
5:00 PM 76 °F - 54 °F 35% 29.65 in - South 23.0 mph - -  
5:00 PM 75.7 °F - 53.6 °F 46% 29.65 in - South 23.0 mph 29.9 mph N/A   Unknown
6:00 PM 75.7 °F - 53.2 °F 45% 29.65 in - South 18.4 mph 26.5 mph N/A   Unknown
7:00 PM 72.0 °F - 53.4 °F 52% 29.64 in - South 20.7 mph 27.6 mph N/A   Unknown
8:00 PM 70 °F - 55 °F 49% 29.62 in - South 21.9 mph - -  
8:00 PM 70.0 °F - 54.9 °F 59% 29.62 in - South 21.9 mph 27.6 mph N/A   Unknown
9:00 PM 66.6 °F - 53.2 °F 62% 29.63 in - South 26.5 mph 35.7 mph N/A   Unknown
10:00 PM 65.1 °F - 54.3 °F 68% 29.67 in - SSW 9.2 mph - N/A   Unknown
11:00 PM 64 °F - 53 °F 57% 29.68 in - SSW 9.2 mph - -  
11:00 PM 63.7 °F - 52.5 °F 67% 29.68 in - SSW 9.2 mph 19.6 mph N/A   Unknown